H1 CPF 2 NER 2021 11 6 9 310 01 glonass129 H2 1106402 9129 37868 2021 11 6 0 0 0 2021 11 9 23 45 0 900 1 1 0 0 0 1 H9 10 0 59524 0.00000 0 6920905.688 22407328.954 -10068152.914 10 0 59524 900.00000 0 7190586.192 23443335.424 -7092979.869 10 0 59524 1800.00000 0 7462197.447 24089591.872 -3980304.985 10 0 59524 2700.00000 0 7680074.980 24339973.934 -790505.828 10 0 59524 3600.00000 0 7789428.656 24201583.616 2414607.632 10 0 59524 4500.00000 0 7738877.779 23694345.505 5572983.827 10 0 59524 5400.00000 0 7482846.590 22850088.104 8623520.880 10 0 59524 6300.00000 0 6983719.854 21711150.082 11507236.074 10 0 59524 7200.00000 0 6213668.568 20328570.484 14168391.868 10 0 59524 8100.00000 0 5156069.605 18759938.776 16555557.959 10 0 59524 9000.00000 0 3806459.954 17066994.127 18622590.329 10 0 59524 9900.00000 0 2172985.445 15313073.301 20329509.733 10 0 59524 10800.00000 0 276324.369 13560512.305 21643264.140 10 0 59524 11700.00000 0 -1850912.171 11868108.594 22538361.567 10 0 59524 12600.00000 0 -4165280.063 10288748.064 22997361.945 10 0 59524 13500.00000 0 -6614058.803 8867294.247 23011218.967 10 0 59524 14400.00000 0 -9137202.891 7638826.525 22579465.236 10 0 59524 15300.00000 0 -11669609.655 6627300.176 21710236.501 10 0 59524 16200.00000 0 -14143611.953 5844683.929 20420133.380 10 0 59524 17100.00000 0 -16491594.497 5290611.383 18733921.653 10 0 59524 18000.00000 0 -18648626.655 4952561.658 16684075.037 10 0 59524 18900.00000 0 -20555003.220 4806562.722 14310167.269 10 0 59524 19800.00000 0 -22158587.558 4818389.064 11658123.262 10 0 59524 20700.00000 0 -23416858.788 4945204.416 8779342.150 10 0 59524 21600.00000 0 -24298576.387 5137581.044 5729707.920 10 0 59524 22500.00000 0 -24784990.959 5341810.671 2568505.999 10 0 59524 23400.00000 0 -24870548.620 5502409.022 -642733.183 10 0 59524 24300.00000 0 -24563057.734 5564707.004 -3841440.770 10 0 59524 25200.00000 0 -23883309.550 5477417.158 -6965241.667 10 0 59524 26100.00000 0 -22864167.767 5195064.552 -9953186.754 10 0 59524 27000.00000 0 -21549164.984 4680176.646 -12746959.406 10 0 59524 27900.00000 0 -19990665.434 3905136.801 -15292030.905 10 0 59524 28800.00000 0 -18247672.210 2853620.516 -17538740.350 10 0 59524 29700.00000 0 -16383372.550 1521551.498 -19443276.501 10 0 59524 30600.00000 0 -14462525.945 -82464.633 -20968541.242 10 0 59524 31500.00000 0 -12548806.415 -1937248.432 -22084877.063 10 0 59524 32400.00000 0 -10702211.829 -4009692.734 -22770644.172 10 0 59524 33300.00000 0 -8976649.869 -6255919.813 -23012636.211 10 0 59524 34200.00000 0 -7417802.176 -8622900.825 -22806327.061 10 0 59524 35100.00000 0 -6061355.813 -11050469.224 -22155944.889 10 0 59524 36000.00000 0 -4931675.026 -13473643.345 -21074373.123 10 0 59524 36900.00000 0 -4040967.319 -15825160.455 -19582881.546 10 0 59524 37800.00000 0 -3388976.494 -18038116.058 -17710694.051 10 0 59524 38700.00000 0 -2963212.912 -20048598.243 -15494402.684 10 0 59524 39600.00000 0 -2739708.596 -21798207.275 -12977240.561 10 0 59524 40500.00000 0 -2684262.661 -23236356.060 -10208228.788 10 0 59524 41400.00000 0 -2754122.228 -24322256.531 -7241214.762 10 0 59524 42300.00000 0 -2900026.002 -25026510.423 -4133821.215 10 0 59524 43200.00000 0 -3068522.832 -25332239.782 -946326.769 10 0 59524 44100.00000 0 -3204466.541 -25235711.803 2259500.191 10 0 59524 45000.00000 0 -3253581.441 -24746433.728 5421591.760 10 0 59524 45900.00000 0 -3164990.440 -23886715.532 8478772.334 10 0 59524 46800.00000 0 -2893599.662 -22690719.993 11371929.668 10 0 59524 47700.00000 0 -2402239.834 -21203040.708 14045143.458 10 0 59524 48600.00000 0 -1663475.055 -19476867.784 16446750.951 10 0 59524 49500.00000 0 -661003.414 -17571817.444 18530330.377 10 0 59524 50400.00000 0 609409.115 -15551515.304 20255584.650 10 0 59524 51300.00000 0 2139501.014 -13481032.717 21589109.693 10 0 59524 52200.00000 0 3908612.679 -11424281.321 22505033.801 10 0 59524 53100.00000 0 5884306.444 -9441472.506 22985516.538 10 0 59524 54000.00000 0 8023485.489 -7586745.777 23021098.010 10 0 59524 54900.00000 0 10273967.570 -5906063.156 22610891.756 10 0 59524 55800.00000 0 12576450.787 -4435456.196 21762616.861 10 0 59524 56700.00000 0 14866792.367 -3199697.939 20492467.615 10 0 59524 57600.00000 0 17078508.162 -2211455.047 18824821.632 10 0 59524 58500.00000 0 19145390.750 -1470955.896 16791790.200 10 0 59524 59400.00000 0 21004138.460 -966189.214 14432617.550 10 0 59524 60300.00000 0 22596886.245 -673625.864 11792938.645 10 0 59524 61200.00000 0 23873532.440 -559434.465 8923908.166 10 0 59524 62100.00000 0 24793763.165 -581140.450 5881216.240 10 0 59524 63000.00000 0 25328688.057 -689659.018 2724009.169 10 0 59524 63900.00000 0 25462016.778 -831616.029 -486263.961 10 0 59524 64800.00000 0 25190724.934 -951857.931 -3687055.960 10 0 59524 65700.00000 0 24525179.521 -996043.151 -6815953.065 10 0 59524 66600.00000 0 23488717.126 -913203.273 -9811907.779 10 0 59524 67500.00000 0 22116691.731 -658163.204 -12616447.260 10 0 59524 68400.00000 0 20455031.825 -193715.316 -15174831.855 10 0 59524 69300.00000 0 18558367.901 507547.005 -17437139.289 10 0 59524 70200.00000 0 16487809.916 1461816.228 -19359251.836 10 0 59524 71100.00000 0 14308469.303 2673139.657 -20903726.059 10 0 59524 72000.00000 0 12086831.011 4133011.180 -22040527.315 10 0 59524 72900.00000 0 9888087.089 5820503.911 -22747614.503 10 0 59524 73800.00000 0 7773544.535 7702938.551 -23011363.849 10 0 59524 74700.00000 0 5798216.546 9737059.195 -22826824.042 10 0 59524 75600.00000 0 4008697.817 11870666.896 -22197798.690 10 0 59524 76500.00000 0 2441411.976 14044641.829 -21136755.635 10 0 59524 77400.00000 0 1121303.043 16195268.699 -19664566.151 10 0 59524 78300.00000 0 61023.523 18256767.444 -17810080.399 10 0 59524 79200.00000 0 -739349.434 20163923.088 -15609548.638 10 0 59524 80100.00000 0 -1292060.752 21854704.618 -13105900.636 10 0 59524 81000.00000 0 -1620900.630 23272763.752 -10347898.298 10 0 59524 81900.00000 0 -1759939.696 24369709.835 -7389178.764 10 0 59524 82800.00000 0 -1751831.788 25107066.749 -4287207.293 10 0 59524 83700.00000 0 -1645757.853 25457831.396 -1102160.606 10 0 59524 84600.00000 0 -1495099.084 25407570.128 2104237.510 10 0 59524 85500.00000 0 -1354938.152 24955008.847 5269905.826 10 0 59525 0.00000 0 -1279494.213 24112093.729 8333597.671 10 0 59525 900.00000 0 -1319599.506 22903520.742 11236074.597 10 0 59525 1800.00000 0 -1520323.369 21365755.732 13921235.846 10 0 59525 2700.00000 0 -1918842.779 19545584.800 16337188.562 10 0 59525 3600.00000 0 -2542648.398 17498256.301 18437235.318 10 0 59525 4500.00000 0 -3408160.906 15285290.789 20180762.992 10 0 59525 5400.00000 0 -4519815.589 12972048.863 21534016.975 10 0 59525 6300.00000 0 -5869654.073 10625156.425 22470747.019 10 0 59525 7200.00000 0 -7437441.292 8309892.562 22972713.122 10 0 59525 8100.00000 0 -9191304.575 6087646.629 23030042.198 10 0 59525 9000.00000 0 -11088870.406 4013548.363 22641428.631 10 0 59525 9900.00000 0 -13078853.996 2134368.097 21814174.240 10 0 59525 10800.00000 0 -15103038.143 486773.301 20564065.840 10 0 59525 11700.00000 0 -17098561.538 -903986.547 18915091.158 10 0 59525 12600.00000 0 -19000423.275 -2024911.895 16898996.804 10 0 59525 13500.00000 0 -20744100.788 -2875566.754 14554694.765 10 0 59525 14400.00000 0 -22268172.816 -3467860.190 11927526.910 10 0 59525 15300.00000 0 -23516837.778 -3825303.920 9068400.028 10 0 59525 16200.00000 0 -24442221.480 -3981776.443 6032806.777 10 0 59525 17100.00000 0 -25006376.012 -3979845.191 2879750.675 10 0 59525 18000.00000 0 -25182883.960 -3868717.365 -329404.143 10 0 59525 18900.00000 0 -24957998.414 -3701906.495 -3532135.618 10 0 59525 19800.00000 0 -24331268.544 -3534714.486 -6665994.588 10 0 59525 20700.00000 0 -23315622.491 -3421637.349 -9669838.182 10 0 59525 21600.00000 0 -21936902.577 -3413806.594 -12485040.056 10 0 59525 22500.00000 0 -20232871.421 -3556577.013 -15056651.990 10 0 59525 23400.00000 0 -18251730.566 -3887365.424 -17334492.291 10 0 59525 24300.00000 0 -16050214.180 -4433834.165 -19274138.253 10 0 59525 25200.00000 0 -13691338.724 -5212498.144 -20837802.067 10 0 59525 26100.00000 0 -11241904.147 -6227815.793 -21995072.329 10 0 59525 27000.00000 0 -8769852.545 -7471803.322 -22723506.392 10 0 59525 27900.00000 0 -6341595.872 -8924188.983 -23009062.238 10 0 59525 28800.00000 0 -4019425.245 -10553100.811 -22846361.988 10 0 59525 29700.00000 0 -1859110.262 -12316258.501 -22238782.848 10 0 59525 30600.00000 0 92211.880 -14162618.696 -21198374.855 10 0 59525 31500.00000 0 1797770.356 -16034403.777 -19745608.261 10 0 59525 32400.00000 0 3232447.201 -17869428.304 -17908956.785 10 0 59525 33300.00000 0 4383564.899 -19603624.962 -15724326.081 10 0 59525 34200.00000 0 5251144.850 -21173663.753 -13234339.704 10 0 59525 35100.00000 0 5847628.964 -22519554.692 -10487497.505 10 0 59525 36000.00000 0 6197079.044 -23587125.289 -7537223.599 10 0 59525 36900.00000 0 6333890.411 -24330269.724 -4440823.115 10 0 59525 37800.00000 0 6301076.297 -24712876.525 -1258368.383 10 0 59525 38700.00000 0 6148197.131 -24710355.249 1948463.732 10 0 59525 39600.00000 0 5929023.209 -24310699.580 5117580.804 10 0 59525 40500.00000 0 5699029.909 -23515043.701 8187667.559 10 0 59525 41400.00000 0 5512831.062 -22337689.758 11099359.971 10 0 59525 42300.00000 0 5421658.176 -20805606.144 13796378.913 10 0 59525 43200.00000 0 5470990.927 -18957417.882 16226602.727 10 0 59525 44100.00000 0 5698437.723 -16841931.062 18343059.402 10 0 59525 45000.00000 0 6131954.612 -14516252.152 20104820.596 10 0 59525 45900.00000 0 6788476.829 -12043579.169 21477781.715 10 0 59525 46800.00000 0 7673020.291 -9490754.876 22435314.234 10 0 59525 47700.00000 0 8778291.220 -6925681.691 22958778.565 10 0 59525 48600.00000 0 10084821.381 -4414703.509 23037888.127 10 0 59525 49500.00000 0 11561625.047 -2020061.008 22670917.587 10 0 59525 50400.00000 0 13167352.461 202475.660 21864750.694 10 0 59525 51300.00000 0 14851894.139 2205699.933 20634765.748 10 0 59525 52200.00000 0 16558371.651 3952701.589 19004559.360 10 0 59525 53100.00000 0 18225434.000 5418167.342 17005512.022 10 0 59525 54000.00000 0 19789765.628 6589194.988 14676201.839 10 0 59525 54900.00000 0 21188702.367 7465586.542 12061675.750 10 0 59525 55800.00000 0 22362846.261 8059607.262 9212590.609 10 0 59525 56700.00000 0 23258569.305 8395219.875 6184239.347 10 0 59525 57600.00000 0 23830299.845 8506825.511 3035480.245 10 0 59525 58500.00000 0 24042493.786 8437564.029 -172410.110 10 0 59525 59400.00000 0 23871205.464 8237245.647 -3376937.478 10 0 59525 60300.00000 0 23305189.652 7960001.996 -6515619.988 10 0 59525 61200.00000 0 22346485.959 7661757.275 -9527222.005 10 0 59525 62100.00000 0 21010459.018 7397628.340 -12352966.110 10 0 59525 63000.00000 0 19325291.235 7219365.994 -14937697.707 10 0 59525 63900.00000 0 17330948.599 7172948.092 -17230977.597 10 0 59525 64800.00000 0 15077662.764 7296428.604 -19188079.694 10 0 59525 65700.00000 0 12623993.458 7618135.622 -20770873.149 10 0 59525 66600.00000 0 10034553.313 8155296.056 -21948570.842 10 0 59525 67500.00000 0 7377491.371 8913146.169 -22698329.374 10 0 59525 68400.00000 0 4721841.586 9884565.983 -23005688.991 10 0 59525 69300.00000 0 2134847.988 11050252.942 -22864845.448 10 0 59525 70200.00000 0 -320621.402 12379427.022 -22278749.408 10 0 59525 71100.00000 0 -2588464.156 13831036.873 -21259032.568 10 0 59525 72000.00000 0 -4621437.518 15355415.215 -19825763.217 10 0 59525 72900.00000 0 -6382871.071 16896312.957 -18007037.283 10 0 59525 73800.00000 0 -7847928.577 18393225.660 -15838414.059 10 0 59525 74700.00000 0 -9004368.733 19783913.945 -13362208.793 10 0 59525 75600.00000 0 -9852775.984 21007011.642 -10626656.900 10 0 59525 76500.00000 0 -10406254.745 22004612.192 -7684966.862 10 0 59525 77400.00000 0 -10689602.827 22724725.035 -4594280.923 10 0 59525 78300.00000 0 -10738001.475 23123499.619 -1414564.168 10 0 59525 79200.00000 0 -10595279.389 23167124.653 1792556.328 10 0 59525 80100.00000 0 -10311825.413 22833324.051 4964979.786 10 0 59525 81000.00000 0 -9942238.857 22112388.032 8041324.830 10 0 59525 81900.00000 0 -9542816.798 21007697.191 10962105.051 10 0 59525 82800.00000 0 -9168983.989 19535718.397 13670865.155 10 0 59525 83700.00000 0 -8872772.900 17725473.049 16115256.980 10 0 59525 84600.00000 0 -8700459.018 15617499.743 18248036.004 10 0 59525 85500.00000 0 -8690449.730 13262353.938 20027960.503 10 0 59526 0.00000 0 -8871514.570 10718706.096 21420577.354 10 0 59526 900.00000 0 -9261430.643 8051114.218 22398881.267 10 0 59526 1800.00000 0 -9866099.648 5327564.759 22943833.852 10 0 59526 2700.00000 0 -10679174.319 2616877.101 23044735.582 10 0 59526 3600.00000 0 -11682210.901 -13919.640 22699441.532 10 0 59526 4500.00000 0 -12845343.023 -2502132.067 21914417.042 10 0 59526 5400.00000 0 -14128450.939 -4791766.118 20704631.064 10 0 59526 6300.00000 0 -15482779.611 -6835611.998 19093287.749 10 0 59526 7200.00000 0 -16852940.246 -8596964.329 17111399.616 10 0 59526 8100.00000 0 -18179213.571 -10050906.089 14797208.562 10 0 59526 9000.00000 0 -19400059.884 -11185102.411 12195463.848 10 0 59526 9900.00000 0 -20454731.423 -12000070.287 9356569.295 10 0 59526 10800.00000 0 -21285877.398 -12508912.036 6335614.769 10 0 59526 11700.00000 0 -21842031.395 -12736522.870 3191309.807 10 0 59526 12600.00000 0 -22079874.923 -12718305.293 -15160.120 10 0 59526 13500.00000 0 -21966179.681 -12498444.346 -3221332.159 10 0 59526 14400.00000 0 -21479344.205 -12127816.880 -6364695.209 10 0 59526 15300.00000 0 -20610457.588 -11661624.131 -9383924.221 10 0 59526 16200.00000 0 -19363843.030 -11156849.224 -12220093.849 10 0 59526 17100.00000 0 -17757056.305 -10669649.091 -14817845.990 10 0 59526 18000.00000 0 -15820337.797 -10252793.277 -17126486.459 10 0 59526 18900.00000 0 -13595540.317 -9953260.209 -19100987.867 10 0 59526 19800.00000 0 -11134577.511 -9810094.532 -20702877.855 10 0 59526 20700.00000 0 -8497458.341 -9852617.701 -21900994.506 10 0 59526 21600.00000 0 -5749990.642 -10099068.527 -22672093.904 10 0 59526 22500.00000 0 -2961250.654 -10555731.563 -23001298.134 10 0 59526 23400.00000 0 -200925.162 -11216590.071 -22882375.515 10 0 59526 24300.00000 0 2463362.306 -12063517.634 -22317848.526 10 0 59526 25200.00000 0 4968629.569 -13066999.396 -21318928.410 10 0 59526 26100.00000 0 7258911.017 -14187351.353 -19905278.991 10 0 59526 27000.00000 0 9287331.996 -15376385.080 -18104615.608 10 0 59526 27900.00000 0 11017797.501 -16579446.624 -15952148.184 10 0 59526 28800.00000 0 12426226.806 -17737742.677 -13489880.483 10 0 59526 29700.00000 0 13501285.128 -18790855.470 -10765780.206 10 0 59526 30600.00000 0 14244584.617 -19679340.174 -7832836.869 10 0 59526 31500.00000 0 14670349.171 -20347295.561 -4748026.514 10 0 59526 32400.00000 0 14804559.996 -20744800.193 -1571203.745 10 0 59526 33300.00000 0 14683620.302 -20830112.403 1636057.242 10 0 59526 34200.00000 0 14352597.213 -20571542.529 4811650.165 10 0 59526 35100.00000 0 13863116.271 -19948919.783 7894130.101 10 0 59526 36000.00000 0 13270997.868 -18954593.138 10823890.462 10 0 59526 36900.00000 0 12633735.126 -17593925.039 13544301.586 10 0 59526 37800.00000 0 12007918.887 -15885257.668 16002790.188 10 0 59526 38700.00000 0 11446717.175 -13859353.038 18151840.201 10 0 59526 39600.00000 0 10997513.906 -11558329.731 19949897.061 10 0 59526 40500.00000 0 10699804.805 -9034139.349 21362159.483 10 0 59526 41400.00000 0 10583437.807 -6346644.351 22361244.692 10 0 59526 42300.00000 0 10667271.067 -3561375.088 22927715.236 10 0 59526 43200.00000 0 10958304.692 -747056.707 23050457.796 10 0 59526 44100.00000 0 11451323.025 2026993.997 22726906.756 10 0 59526 45000.00000 0 12129063.551 4693496.086 21963107.728 10 0 59526 45900.00000 0 12962906.965 7189749.461 20773618.827 10 0 59526 46800.00000 0 13914061.506 9459993.302 19181250.097 10 0 59526 47700.00000 0 14935194.060 11457480.903 17216644.316 10 0 59526 48600.00000 0 15972441.705 13146184.992 14917705.279 10 0 59526 49500.00000 0 16967720.990 14502062.344 12328882.551 10 0 59526 50400.00000 0 17861239.057 15513824.108 9500324.774 10 0 59526 51300.00000 0 18594101.396 16183178.773 6486916.467 10 0 59526 52200.00000 0 19110906.059 16524536.545 3347216.020 10 0 59526 53100.00000 0 19362213.791 16564186.659 142315.293 10 0 59526 54000.00000 0 19306788.047 16338981.756 -3065356.782 10 0 59526 54900.00000 0 18913507.974 15894584.758 -6213262.390 10 0 59526 55800.00000 0 18162871.046 15283352.759 -9239989.461 10 0 59526 56700.00000 0 17048019.273 14561948.464 -12086466.955 10 0 59526 57600.00000 0 15575243.332 13788781.715 -14697135.261 10 0 59526 58500.00000 0 13763941.474 13021391.217 -17021046.944 10 0 59526 59400.00000 0 11646033.540 12313879.172 -19012874.771 10 0 59526 60300.00000 0 9264853.983 11714509.206 -20633806.077 10 0 59526 61200.00000 0 6673570.247 11263570.692 -21852305.097 10 0 59526 62100.00000 0 3933193.098 10991600.795 -22644728.115 10 0 59526 63000.00000 0 1110262.770 10918039.841 -22995779.499 10 0 59526 63900.00000 0 -1725691.559 11050376.683 -22898800.285 10 0 59526 64800.00000 0 -4504812.303 11383819.484 -22355884.573 10 0 59526 65700.00000 0 -7159582.721 11901504.672 -21377822.560 10 0 59526 66600.00000 0 -9627393.620 12575233.847 -19983872.587 10 0 59526 67500.00000 0 -11852901.183 13366705.993 -18201367.954 10 0 59526 68400.00000 0 -13790078.857 14229191.469 -16065167.371 10 0 59526 69300.00000 0 -15403879.406 15109575.816 -13616960.944 10 0 59526 70200.00000 0 -16671440.045 15950686.085 -10904446.236 10 0 59526 71100.00000 0 -17582782.892 16693800.878 -7980391.216 10 0 59526 72000.00000 0 -18140984.187 17281237.937 -4901603.050 10 0 59526 72900.00000 0 -18361807.997 17658910.302 -1727823.165 10 0 59526 73800.00000 0 -18272822.372 17778743.762 1479429.793 10 0 59526 74700.00000 0 -17912037.217 17600854.532 4658046.658 10 0 59526 75600.00000 0 -17326122.809 17095396.376 7746521.508 10 0 59526 76500.00000 0 -16568284.884 16244000.425 10685130.021 10 0 59526 77400.00000 0 -15695885.987 15040747.976 13417070.510 10 0 59526 78300.00000 0 -14767912.841 13492635.968 15889546.761 10 0 59526 79200.00000 0 -13842395.332 11619515.604 18054773.169 10 0 59526 80100.00000 0 -12973884.356 9453506.241 19870884.132 10 0 59526 81000.00000 0 -12211092.957 7037907.909 21302731.630 10 0 59526 81900.00000 0 -11594798.353 4425656.044 22322556.909 10 0 59526 82800.00000 0 -11156091.616 1677380.689 22910524.237 10 0 59526 83700.00000 0 -10915047.601 -1140851.734 23055107.082 10 0 59526 84600.00000 0 -10879870.640 -3960023.019 22753319.346 10 0 59526 85500.00000 0 -11046552.163 -6710773.556 22010786.734 10 0 59527 0.00000 0 -11399055.540 -9326032.357 20841656.054 10 0 59527 900.00000 0 -11910022.107 -11743560.898 19268342.023 10 0 59527 1800.00000 0 -12541970.021 -13908302.851 17321116.345 10 0 59527 2700.00000 0 -13248938.155 -15774447.411 15037542.888 10 0 59527 3600.00000 0 -13978507.248 -17307116.732 12461769.334 10 0 59527 4500.00000 0 -14674114.765 -18483607.903 9643686.639 10 0 59527 5400.00000 0 -15277566.672 -19294136.357 6637971.201 10 0 59527 6300.00000 0 -15731640.211 -19742048.431 3503027.292 10 0 59527 7200.00000 0 -15982667.027 -19843492.920 299850.027 10 0 59527 8100.00000 0 -15982986.002 -19626564.596 -2909168.807 10 0 59527 9000.00000 0 -15693160.005 -19129955.257 -6061467.973 10 0 59527 9900.00000 0 -15083860.329 -18401169.250 -9095551.682 10 0 59527 10800.00000 0 -14137336.511 -17494379.469 -11952206.450 10 0 59527 11700.00000 0 -12848406.793 -16468015.564 -14575674.280 10 0 59527 12600.00000 0 -11224925.218 -15382187.865 -16914757.389 10 0 59527 13500.00000 0 -9287703.832 -14296057.685 -18923831.280 10 0 59527 14400.00000 0 -7069892.044 -13265266.906 -20563745.110 10 0 59527 15300.00000 0 -4615838.626 -12339536.968 -21802590.865 10 0 59527 16200.00000 0 -1979484.036 -11560539.787 -22616326.004 10 0 59527 17100.00000 0 777649.358 -10960131.009 -22989237.522 10 0 59527 18000.00000 0 3588784.399 -10559020.092 -22914238.885 10 0 59527 18900.00000 0 6384435.859 -10365932.631 -22392994.935 10 0 59527 19800.00000 0 9095070.005 -10377299.008 -21435873.428 10 0 59527 20700.00000 0 11653765.844 -10577480.890 -20061725.380 10 0 59527 21600.00000 0 13998767.409 -10939524.110 -18297499.812 10 0 59527 22500.00000 0 16075821.458 -11426404.265 -16177701.627 10 0 59527 23400.00000 0 17840204.317 -11992710.609 -13743704.369 10 0 59527 24300.00000 0 19258355.134 -12586695.604 -11042932.265 10 0 59527 25200.00000 0 20309049.536 -13152602.428 -8127928.293 10 0 59527 26100.00000 0 20984067.082 -13633171.390 -5055327.121 10 0 59527 27000.00000 0 21288327.214 -13972219.159 -1884753.292 10 0 59527 27900.00000 0 21239490.545 -14117182.071 1322333.777 10 0 59527 28800.00000 0 20867044.459 -14021516.724 4503825.572 10 0 59527 29700.00000 0 20210913.261 -13646857.398 7598158.417 10 0 59527 30600.00000 0 19319652.513 -12964840.275 10545493.137 10 0 59527 31500.00000 0 18248303.997 -11958518.524 13288858.417 10 0 59527 32400.00000 0 17056001.387 -10623309.359 15775237.015 10 0 59527 33300.00000 0 15803426.482 -8967433.515 17956575.162 10 0 59527 34200.00000 0 14550221.588 -7011828.446 19790697.081 10 0 59527 35100.00000 0 13352465.121 -4789537.956 21242108.414 10 0 59527 36000.00000 0 12260314.553 -2344602.214 22282674.386 10 0 59527 36900.00000 0 11315913.928 269507.617 22892160.555 10 0 59527 37800.00000 0 10551652.282 2991847.484 23058626.401 10 0 59527 38700.00000 0 9988845.015 5756272.692 22778664.263 10 0 59527 39600.00000 0 9636893.194 8493932.620 22057478.589 10 0 59527 40500.00000 0 9492956.285 11135886.969 20908803.058 10 0 59527 41400.00000 0 9542152.898 13615737.153 19354655.709 10 0 59527 42300.00000 0 9758282.485 15872165.044 17424935.048 10 0 59527 43200.00000 0 10105039.192 17851274.536 15156862.924 10 0 59527 44100.00000 0 10537668.472 19508638.631 12594282.900 10 0 59527 45000.00000 0 11004998.066 20810966.231 9786825.873 10 0 59527 45900.00000 0 11451758.677 21737318.035 6788957.616 10 0 59527 46800.00000 0 11821096.681 22279819.360 3658925.668 10 0 59527 47700.00000 0 12057172.314 22443838.551 457625.707 10 0 59527 48600.00000 0 12107732.275 22247622.213 -2752590.346 10 0 59527 49500.00000 0 11926546.099 21721401.694 -5909140.490 10 0 59527 50400.00000 0 11475600.842 20906008.007 -8950447.762 10 0 59527 51300.00000 0 10726958.623 19851053.772 -11817158.567 10 0 59527 52200.00000 0 9664195.727 18612759.614 -14453318.622 10 0 59527 53100.00000 0 8283360.011 17251518.019 -16807481.603 10 0 59527 54000.00000 0 6593404.052 15829299.007 -18833727.264 10 0 59527 54900.00000 0 4616074.154 14407008.779 -20492567.827 10 0 59527 55800.00000 0 2385258.880 13041914.329 -21751723.991 10 0 59527 56700.00000 0 -54175.998 11785243.825 -22586755.092 10 0 59527 57600.00000 0 -2648017.278 10680064.571 -22981531.159 10 0 59527 58500.00000 0 -5334730.177 9759528.059 -22928538.176 10 0 59527 59400.00000 0 -8047794.984 9045555.427 -22429011.446 10 0 59527 60300.00000 0 -10718256.435 8548017.432 -21492895.581 10 0 59527 61200.00000 0 -13277378.925 8264441.772 -20138633.125 10 0 59527 62100.00000 0 -15659296.783 8180257.970 -18392787.243 10 0 59527 63000.00000 0 -17803549.466 8269567.176 -16289507.067 10 0 59527 63900.00000 0 -19657396.666 8496402.209 -13869847.285 10 0 59527 64800.00000 0 -21177818.091 8816422.547 -11180956.278 10 0 59527 65700.00000 0 -22333116.162 9178970.994 -8275149.389 10 0 59527 66600.00000 0 -23104056.717 9529403.895 -5208886.096 10 0 59527 67500.00000 0 -23484502.316 9811595.672 -2041671.365 10 0 59527 68400.00000 0 -23481513.999 9970511.599 1165097.270 10 0 59527 69300.00000 0 -23114919.419 9954740.377 4349314.536 10 0 59527 70200.00000 0 -22416367.376 9718880.101 7449361.537 10 0 59527 71100.00000 0 -21427909.820 9225677.765 10405286.675 10 0 59527 72000.00000 0 -20200171.663 8447832.983 13159951.355 10 0 59527 72900.00000 0 -18790185.371 7369390.716 15660119.493 10 0 59527 73800.00000 0 -17258980.657 5986664.852 17857471.169 10 0 59527 74700.00000 0 -15669029.320 4308653.901 19709522.184 10 0 59527 75600.00000 0 -14081650.743 2356930.738 21180433.308 10 0 59527 76500.00000 0 -12554484.924 165009.736 22241694.873 10 0 59527 77400.00000 0 -11139136.945 -2222784.057 22872674.510 10 0 59527 78300.00000 0 -9879089.724 -4752899.006 23061018.128 10 0 59527 79200.00000 0 -8807970.951 -7364530.989 22802896.561 10 0 59527 80100.00000 0 -7948245.842 -9991908.278 22103092.719 10 0 59527 81000.00000 0 -7310390.103 -12566794.994 20974926.651 10 0 59527 81900.00000 0 -6892577.958 -15021111.632 19440018.564 10 0 59527 82800.00000 0 -6680899.165 -17289565.552 17527892.595 10 0 59527 83700.00000 0 -6650097.025 -19312183.313 15275427.012 10 0 59527 84600.00000 0 -6764797.714 -21036639.894 12726159.406 10 0 59527 85500.00000 0 -6981180.486 -22420287.378 9929458.518 99